N8SHA Weather Reports


Display with metric or nautical units.
time (UTC)temp
F
wind
direction
speed
MPH
gust
MPH
rain 1hr
in
rain 24hr
in
rain mn
in
humidity
%
barometer
mb
20260906040045 59 104 0.0 1.0 0.00 0.00 0.00 95 1018.6
20260906035541 59 62 0.0 1.0 0.00 0.00 0.00 94 1018.4
20260906035037 59 50 0.0 1.0 0.00 0.00 0.00 94 1018.4
20260906034536 59 72 0.0 1.0 0.00 0.00 0.00 94 1018.2
20260906034031 60 71 0.0 2.0 0.00 0.00 0.00 94 1018.2
20260906033526 60 49 0.0 1.0 0.00 0.00 0.00 94 1018.4
20260906033021 60 76 0.0 1.0 0.00 0.00 0.00 93 1018.2
20260906032513 60 75 0.0 1.0 0.00 0.00 0.00 93 1018.3
20260906032013 60 103 0.0 1.0 0.00 0.00 0.00 93 1018.5
20260906031508 60 79 1.0 1.0 0.00 0.00 0.00 93 1018.4
20260906030957 60 135 1.0 1.0 0.00 0.00 0.00 93 1018.4
20260906030452 61 104 0.0 1.0 0.00 0.00 0.00 92 1018.5
20260906025952 61 83 1.0 1.0 0.00 0.00 0.00 92 1018.5
20260906025446 61 114 0.0 1.0 0.00 0.00 0.00 92 1018.3
20260906024945 61 75 0.0 1.0 0.00 0.00 0.00 92 1018.4
20260906024444 61 104 0.0 2.0 0.00 0.00 0.00 92 1018.4
20260906023939 61 95 1.0 1.0 0.00 0.00 0.00 92 1018.3
20260906023435 62 89 0.0 1.0 0.00 0.00 0.00 91 1018.2
20260906022930 62 62 0.0 1.0 0.00 0.00 0.00 91 1018.2
20260906022426 62 75 0.0 1.0 0.00 0.00 0.00 90 1018.4
20260906021921 63 62 0.0 2.0 0.00 0.00 0.00 90 1018.3
20260906021421 62 61 1.0 1.0 0.00 0.00 0.00 90 1018.1
20260906020920 63 44 0.0 1.0 0.00 0.00 0.00 89 1018.0
20260906020415 63 75 0.0 1.0 0.00 0.00 0.00 89 1018.3
20260906015904 64 62 0.0 0.0 0.00 0.00 0.00 88 1018.2
20260906015403 64 62 0.0 1.0 0.00 0.00 0.00 88 1018.2
20260906014903 64 89 0.0 2.0 0.00 0.00 0.00 87 1018.3
20260906014357 64 99 0.0 1.0 0.00 0.00 0.00 87 1018.1
20260906013853 65 66 0.0 1.0 0.00 0.00 0.00 86 1018.3
20260906013349 65 89 0.0 2.0 0.00 0.00 0.00 85 1018.1
20260906012844 65 96 0.0 1.0 0.00 0.00 0.00 84 1018.1
20260906012339 66 113 0.0 1.0 0.00 0.00 0.00 84 1018.2
20260906011839 66 104 0.0 1.0 0.00 0.00 0.00 83 1017.7
20260906011333 66 71 1.0 3.0 0.00 0.00 0.00 83 1017.9
20260906010829 67 104 0.0 1.0 0.00 0.00 0.00 83 1017.7
20260906010326 67 62 0.0 2.0 0.00 0.00 0.00 83 1017.7
20260906005821 67 63 2.0 3.0 0.00 0.00 0.00 82 1017.7
20260906005320 68 76 2.0 3.0 0.00 0.00 0.00 81 1017.6
20260906004819 68 91 1.0 3.0 0.00 0.00 0.00 81 1017.8
20260906004319 68 82 2.0 4.0 0.00 0.00 0.00 80 1017.6
20260906003814 68 343 0.0 3.0 0.00 0.00 0.00 80 1017.5
20260906003309 68 80 0.0 2.0 0.00 0.00 0.00 82 1017.5
20260906002805 69 83 1.0 2.0 0.00 0.00 0.00 81 1017.3
20260906002306 69 59 3.0 4.0 0.00 0.00 0.00 80 1017.0
20260906001800 69 61 1.0 3.0 0.00 0.00 0.00 81 1017.1
20260906001255 69 354 1.0 3.0 0.00 0.00 0.00 81 1017.1
20260906000750 69 230 0.0 3.0 0.00 0.00 0.00 80 1017.3
20260906000244 70 95 1.0 2.0 0.00 0.00 0.00 80 1017.0
20260905235739 71 75 0.0 2.0 0.00 0.00 0.00 79 1016.8
20260905235239 71 77 1.0 5.0 0.00 0.00 0.00 78 1016.9
20260905234734 71 57 2.0 4.0 0.00 0.00 0.00 78 1016.8
20260905234230 71 117 0.0 1.0 0.00 0.00 0.00 77 1016.7
20260905233725 72 89 0.0 2.0 0.00 0.00 0.00 76 1016.7
20260905233224 72 28 0.0 4.0 0.00 0.00 0.00 74 1016.8
20260905232719 72 338 2.0 3.0 0.00 0.00 0.00 74 1016.7
20260905232215 73 308 4.0 4.0 0.00 0.00 0.00 73 1016.7
20260905231711 73 21 2.0 3.0 0.00 0.00 0.00 72 1016.6
20260905231206 73 76 2.0 3.0 0.00 0.00 0.00 72 1016.9
20260905230702 74 200 0.0 4.0 0.00 0.00 0.00 72 1016.8
20260905230200 74 61 1.0 1.0 0.00 0.00 0.00 73 1016.8
20260905225659 74 40 2.0 2.0 0.00 0.00 0.00 72 1016.6
20260905225154 74 15 1.0 4.0 0.00 0.00 0.00 71 1016.7
20260905224653 74 78 2.0 3.0 0.00 0.00 0.00 69 1016.8
20260905224148 75 26 0.0 4.0 0.00 0.00 0.00 68 1016.7
20260905223645 76 73 1.0 3.0 0.00 0.00 0.00 70 1016.6
20260905223142 76 77 3.0 5.0 0.00 0.00 0.00 66 1016.4
20260905222637 77 137 0.0 3.0 0.00 0.00 0.00 67 1016.4
20260905222132 78 44 1.0 2.0 0.00 0.00 0.00 65 1016.3
20260905221627 78 111 2.0 4.0 0.00 0.00 0.00 64 1016.3
20260905221124 79 80 3.0 4.0 0.00 0.00 0.00 62 1016.2
20260905220619 78 8 1.0 7.0 0.00 0.00 0.00 64 1016.1
20260905220115 78 70 1.0 5.0 0.00 0.00 0.00 67 1016.2
20260905215615 78 47 3.0 4.0 0.00 0.00 0.00 65 1016.1
20260905215111 78 66 0.0 6.0 0.00 0.00 0.00 64 1016.3
20260905214607 80 2 0.0 4.0 0.00 0.00 0.00 62 1016.4
20260905214106 79 38 0.0 4.0 0.00 0.00 0.00 63 1016.2
20260905213601 78 315 3.0 6.0 0.00 0.00 0.00 61 1016.4
20260905213056 78 305 5.0 6.0 0.00 0.00 0.00 61 1016.3
20260905212551 79 339 2.0 3.0 0.00 0.00 0.00 64 1016.2
20260905212051 79 78 2.0 4.0 0.00 0.00 0.00 63 1016.4
20260905211546 79 20 1.0 5.0 0.00 0.00 0.00 62 1016.2
20260905211042 79 56 1.0 4.0 0.00 0.00 0.00 63 1016.2
20260905210537 79 185 3.0 4.0 0.00 0.00 0.00 62 1016.2
20260905210032 78 101 3.0 4.0 0.00 0.00 0.00 66 1016.3
20260905205531 79 112 2.0 7.0 0.00 0.00 0.00 64 1016.2
20260905205030 78 310 3.0 6.0 0.00 0.00 0.00 64 1016.2
20260905204526 79 59 2.0 6.0 0.00 0.00 0.00 66 1016.3
20260905204020 80 66 3.0 4.0 0.00 0.00 0.00 65 1016.2
20260905203515 80 337 4.0 4.0 0.00 0.00 0.00 63 1016.1
20260905203010 80 357 2.0 7.0 0.00 0.00 0.00 65 1016.3
20260905202506 80 326 3.0 4.0 0.00 0.00 0.00 61 1016.1
20260905202001 81 123 0.0 3.0 0.00 0.00 0.00 66 1016.1
20260905201456 80 106 2.0 3.0 0.00 0.00 0.00 63 1016.3
20260905200955 80 306 3.0 5.0 0.00 0.00 0.00 64 1016.3
20260905200452 80 14 4.0 5.0 0.00 0.00 0.00 64 1016.3
20260905195950 80 3 2.0 7.0 0.00 0.00 0.00 63 1016.3
20260905195445 80 118 2.0 5.0 0.00 0.00 0.00 63 1016.5
20260905194941 80 355 1.0 7.0 0.00 0.00 0.00 63 1016.3
20260905194440 79 30 1.0 5.0 0.00 0.00 0.00 66 1016.3
20260905193935 80 332 3.0 4.0 0.00 0.00 0.00 64 1016.4
20260905193435 79 283 0.0 4.0 0.00 0.00 0.00 70 1016.3
20260905192930 78 33 3.0 4.0 0.00 0.00 0.00 66 1016.5
20260905192425 77 49 1.0 2.0 0.00 0.00 0.00 70 1016.6
20260905191921 77 315 1.0 3.0 0.00 0.00 0.00 66 1016.6
20260905191420 78 327 2.0 5.0 0.00 0.00 0.00 66 1016.6
20260905190914 78 353 0.0 2.0 0.00 0.00 0.00 69 1016.7
20260905190412 77 74 0.0 4.0 0.00 0.00 0.00 71 1016.8
20260905185911 77 317 2.0 3.0 0.00 0.00 0.00 68 1016.6
20260905185406 78 32 0.0 2.0 0.00 0.00 0.00 70 1016.6
20260905184905 78 114 0.0 3.0 0.00 0.00 0.00 68 1016.7
20260905184359 79 327 3.0 5.0 0.00 0.00 0.00 69 1016.7
20260905183857 78 318 2.0 4.0 0.00 0.00 0.00 70 1016.8
20260905183353 78 15 0.0 2.0 0.00 0.00 0.00 74 1016.7
20260905182848 79 74 1.0 5.0 0.00 0.00 0.00 71 1016.9
20260905182347 79 31 3.0 4.0 0.00 0.00 0.00 72 1016.8
20260905181843 78 65 0.0 2.0 0.00 0.00 0.00 71 1016.8
20260905181343 78 94 0.0 4.0 0.00 0.00 0.00 70 1016.9
20260905180842 79 66 2.0 3.0 0.00 0.00 0.00 72 1016.8
20260905180337 80 20 1.0 4.0 0.00 0.00 0.00 67 1016.8
20260905175831 78 33 1.0 6.0 0.00 0.00 0.00 70 1016.7
20260905175326 78 94 3.0 5.0 0.00 0.00 0.00 70 1016.7
20260905174821 79 321 3.0 5.0 0.00 0.00 0.00 69 1016.6
20260905174317 78 350 1.0 7.0 0.00 0.00 0.00 69 1016.7
20260905173812 78 195 0.0 5.0 0.00 0.00 0.00 70 1016.6
20260905173308 78 93 2.0 4.0 0.00 0.00 0.00 71 1016.6
20260905172809 77 61 0.0 5.0 0.00 0.00 0.00 73 1016.5
20260905172307 77 347 2.0 5.0 0.00 0.00 0.00 73 1016.7
20260905171803 77 19 3.0 6.0 0.00 0.00 0.00 72 1016.7
20260905171300 77 64 0.0 3.0 0.00 0.00 0.00 74 1016.6
20260905170756 77 16 2.0 3.0 0.00 0.00 0.00 73 1016.7
20260905170251 77 102 2.0 4.0 0.00 0.00 0.00 75 1016.8
20260905165750 77 59 1.0 3.0 0.00 0.00 0.00 74 1016.6
20260905165246 76 96 2.0 3.0 0.00 0.00 0.00 71 1017.0
20260905164746 76 5 2.0 5.0 0.00 0.00 0.00 73 1016.8
20260905164240 76 323 3.0 4.0 0.00 0.00 0.00 72 1017.0
20260905163736 77 48 2.0 5.0 0.00 0.00 0.00 74 1017.3
20260905163232 77 315 5.0 5.0 0.00 0.00 0.00 70 1017.3
20260905162728 77 329 3.0 6.0 0.00 0.00 0.00 70 1017.0
20260905162228 77 107 2.0 3.0 0.00 0.00 0.00 70 1017.0
20260905161723 76 151 0.0 2.0 0.00 0.00 0.00 72 1017.1
20260905161221 76 132 1.0 4.0 0.00 0.00 0.00 75 1017.0
20260905160720 75 356 2.0 3.0 0.00 0.00 0.00 75 1017.1
20260905160214 74 335 3.0 5.0 0.00 0.00 0.00 73 1017.0
20260905155708 75 346 3.0 3.0 0.00 0.00 0.00 75 1017.0
20260905155208 74 129 1.0 4.0 0.00 0.00 0.00 75 1017.0
20260905154701 74 294 4.0 5.0 0.00 0.00 0.00 75 1016.9
20260905154157 74 36 0.0 4.0 0.00 0.00 0.00 76 1016.9
20260905153653 74 62 0.0 3.0 0.00 0.00 0.00 76 1016.9
20260905153148 73 328 3.0 4.0 0.00 0.00 0.00 76 1016.7
20260905152637 73 355 2.0 4.0 0.00 0.00 0.00 76 1016.7
20260905152132 73 190 1.0 4.0 0.00 0.00 0.00 76 1016.8
20260905151627 74 105 0.0 6.0 0.00 0.00 0.00 77 1016.9
20260905151122 74 89 1.0 3.0 0.00 0.00 0.00 79 1016.9
20260905150618 73 312 4.0 6.0 0.00 0.00 0.00 78 1016.8
20260905150116 73 11 2.0 6.0 0.00 0.00 0.00 79 1016.6
20260905145615 73 96 1.0 3.0 0.00 0.00 0.00 80 1016.6
20260905145114 72 321 0.0 4.0 0.00 0.00 0.00 83 1016.5
20260905144609 71 332 1.0 5.0 0.00 0.00 0.00 82 1016.3
20260905144108 71 69 3.0 6.0 0.00 0.00 0.00 82 1016.6
20260905143608 71 118 2.0 3.0 0.00 0.00 0.00 83 1016.5
20260905143103 71 145 0.0 3.0 0.00 0.00 0.00 83 1016.7
20260905142602 71 11 1.0 4.0 0.00 0.00 0.00 84 1016.6
20260905142056 71 109 2.0 3.0 0.00 0.00 0.00 83 1016.4
20260905141556 71 99 3.0 4.0 0.00 0.00 0.00 82 1016.6
20260905141052 71 39 2.0 3.0 0.00 0.00 0.00 85 1016.7
20260905140548 71 50 0.0 3.0 0.00 0.00 0.00 85 1016.5
20260905140046 71 54 0.0 3.0 0.00 0.00 0.00 85 1016.4
20260905135542 70 315 2.0 3.0 0.00 0.00 0.00 84 1016.5
20260905135042 70 323 3.0 4.0 0.00 0.00 0.00 84 1016.4
20260905134537 70 66 0.0 3.0 0.00 0.00 0.00 87 1016.4
20260905134035 69 38 0.0 3.0 0.00 0.00 0.00 88 1016.3
20260905133531 69 328 2.0 5.0 0.00 0.00 0.00 88 1016.2
20260905133031 69 44 0.0 5.0 0.00 0.00 0.00 88 1016.4
20260905132531 68 61 1.0 4.0 0.00 0.00 0.00 88 1016.3
20260905132026 68 53 3.0 3.0 0.00 0.00 0.00 89 1016.6
20260905131521 68 73 0.0 4.0 0.00 0.00 0.00 90 1016.6
20260905131016 68 51 1.0 2.0 0.00 0.00 0.00 90 1016.6
20260905130515 68 57 1.0 2.0 0.00 0.00 0.00 91 1016.7
20260905130011 68 359 0.0 3.0 0.00 0.00 0.00 91 1016.4
20260905125505 68 6 2.0 3.0 0.00 0.00 0.00 92 1016.6
20260905125000 68 58 1.0 2.0 0.00 0.00 0.00 92 1016.2
20260905124457 68 45 2.0 3.0 0.00 0.00 0.00 93 1016.2
20260905123952 68 62 2.0 2.0 0.00 0.00 0.00 93 1016.4
20260905123449 68 48 1.0 2.0 0.00 0.00 0.00 93 1016.2
20260905122948 67 60 1.0 3.0 0.00 0.00 0.00 94 1016.3
20260905122443 67 52 0.0 3.0 0.00 0.00 0.00 94 1016.2
20260905121938 67 64 1.0 4.0 0.00 0.00 0.00 94 1016.1
20260905121434 67 65 2.0 4.0 0.00 0.00 0.00 94 1016.2
20260905120933 67 17 2.0 3.0 0.00 0.00 0.00 94 1016.2
20260905120427 67 31 1.0 3.0 0.00 0.00 0.00 94 1016.2
20260905115923 67 53 0.0 3.0 0.00 0.00 0.00 95 1016.2
20260905115421 67 22 1.0 2.0 0.00 0.00 0.00 95 1016.2
20260905114917 67 80 1.0 2.0 0.00 0.00 0.00 95 1016.1
20260905114416 67 357 0.0 2.0 0.00 0.00 0.00 95 1016.1
20260905113910 67 42 1.0 1.0 0.00 0.00 0.00 95 1016.1
20260905113405 67 7 0.0 2.0 0.00 0.00 0.00 95 1016.0
20260905112901 67 60 2.0 3.0 0.00 0.00 0.00 95 1015.8
20260905112356 67 58 1.0 3.0 0.00 0.00 0.00 95 1015.9
20260905111851 67 67 1.0 3.0 0.00 0.00 0.00 95 1016.0
20260905111345 67 291 1.0 2.0 0.00 0.00 0.00 95 1015.9
20260905110844 67 59 0.0 3.0 0.00 0.00 0.00 96 1015.5
20260905110338 67 54 2.0 3.0 0.00 0.00 0.00 96 1015.7
20260905105834 67 333 0.0 2.0 0.00 0.00 0.00 96 1015.5
20260905105333 67 354 1.0 2.0 0.00 0.00 0.00 96 1015.5
20260905104827 67 294 1.0 3.0 0.00 0.00 0.00 96 1015.5
20260905104324 67 341 0.0 2.0 0.00 0.00 0.00 96 1015.4
20260905103823 67 60 0.0 2.0 0.00 0.00 0.00 96 1015.5
20260905103319 67 67 2.0 2.0 0.00 0.00 0.00 96 1015.7
20260905102814 67 348 1.0 1.0 0.00 0.00 0.00 96 1015.8
20260905102311 67 123 0.0 2.0 0.00 0.00 0.00 97 1015.7
20260905101811 67 27 1.0 2.0 0.00 0.00 0.00 97 1015.5
20260905101309 67 339 0.0 2.0 0.00 0.00 0.00 97 1015.5
20260905100803 67 113 0.0 3.0 0.00 0.00 0.00 97 1016.0
20260905100300 67 82 2.0 3.0 0.00 0.00 0.00 97 1015.8
20260905095759 67 51 2.0 3.0 0.00 0.00 0.00 97 1015.6
20260905095253 67 33 2.0 3.0 0.00 0.00 0.00 97 1015.7
20260905094748 67 59 1.0 2.0 0.00 0.00 0.00 97 1015.8
20260905094244 67 62 0.0 3.0 0.00 0.00 0.00 97 1015.7
20260905093742 67 17 1.0 1.0 0.00 0.00 0.00 97 1015.7
20260905093238 67 230 0.0 2.0 0.00 0.00 0.00 97 1015.5
20260905092734 67 6 1.0 3.0 0.00 0.00 0.00 97 1015.6
20260905092229 67 48 0.0 2.0 0.00 0.00 0.00 98 1015.6
20260905091729 67 47 2.0 3.0 0.00 0.00 0.00 98 1015.7
20260905091224 67 59 1.0 2.0 0.00 0.00 0.00 98 1015.7
20260905090723 67 84 1.0 2.0 0.00 0.00 0.00 98 1015.7
20260905090219 67 62 0.0 1.0 0.00 0.00 0.00 98 1015.9
20260905085718 67 343 0.0 1.0 0.00 0.00 0.00 98 1015.5
20260905085212 67 55 0.0 1.0 0.00 0.00 0.00 98 1015.6
20260905084707 67 33 2.0 2.0 0.00 0.00 0.00 98 1015.5
20260905084207 67 37 0.0 1.0 0.00 0.00 0.00 98 1015.4
20260905083701 67 75 0.0 1.0 0.00 0.00 0.00 98 1015.2
20260905083158 67 50 0.0 1.0 0.00 0.00 0.00 98 1015.3
20260905082653 67 75 0.0 0.0 0.00 0.00 0.00 98 1015.6
20260905082148 67 104 0.0 1.0 0.00 0.00 0.00 98 1015.0
20260905081643 67 60 0.0 1.0 0.00 0.00 0.00 98 1015.1
20260905081138 67 76 0.0 0.0 0.00 0.00 0.00 98 1015.1
20260905080632 67 44 0.0 3.0 0.00 0.00 0.00 98 1015.2
20260905080127 67 293 0.0 1.0 0.00 0.00 0.00 98 1015.4
20260905075626 67 73 0.0 2.0 0.00 0.00 0.00 98 1015.4
20260905075126 67 38 1.0 5.0 0.00 0.00 0.00 98 1015.3
20260905074625 68 29 1.0 2.0 0.00 0.00 0.00 98 1015.3
20260905074121 68 34 2.0 3.0 0.00 0.00 0.00 99 1015.4
20260905073616 68 11 0.0 1.0 0.00 0.00 0.00 99 1015.6
20260905073112 68 242 0.0 1.0 0.00 0.00 0.00 99 1015.6
20260905072611 68 79 1.0 2.0 0.00 0.00 0.00 99 1015.6
20260905072106 68 117 0.0 1.0 0.00 0.00 0.00 99 1015.6
20260905071603 68 62 0.0 2.0 0.00 0.00 0.00 99 1015.3
20260905071103 68 49 1.0 2.0 0.00 0.00 0.00 99 1015.3
20260905070558 68 0 0.0 2.0 0.00 0.00 0.00 99 1015.1
20260905070054 68 57 2.0 2.0 0.00 0.00 0.00 99 1015.0
20260905065552 68 63 1.0 3.0 0.00 0.00 0.00 99 1015.2
20260905065047 68 70 2.0 3.0 0.00 0.00 0.00 99 1015.0
20260905064542 68 41 2.0 2.0 0.00 0.00 0.00 99 1014.9
20260905064037 68 19 1.0 3.0 0.00 0.00 0.00 99 1014.8
20260905063536 68 66 1.0 1.0 0.00 0.00 0.00 99 1014.9
20260905063033 68 38 0.0 1.0 0.00 0.00 0.00 99 1014.9
20260905062532 68 7 0.0 1.0 0.00 0.00 0.00 99 1015.0
20260905062027 68 117 0.0 1.0 0.00 0.00 0.00 99 1015.1
20260905061523 68 6 0.0 1.0 0.00 0.00 0.00 99 1015.1
20260905061021 68 50 0.0 1.0 0.00 0.00 0.00 99 1015.2
20260905060518 68 32 0.0 1.0 0.00 0.00 0.00 99 1015.3
20260905060013 69 75 0.0 1.0 0.00 0.00 0.00 99 1015.3
20260905055511 69 349 0.0 2.0 0.00 0.00 0.00 99 1015.3
20260905055006 69 44 0.0 2.0 0.00 0.00 0.00 99 1015.4
20260905054502 69 75 0.0 2.0 0.00 0.00 0.00 99 1015.4
20260905053957 69 51 1.0 2.0 0.00 0.00 0.00 99 1015.6
20260905053451 69 45 0.0 1.0 0.00 0.00 0.00 99 1015.7
20260905052948 69 62 0.0 0.0 0.00 0.00 0.00 99 1015.6
20260905052447 69 322 0.0 1.0 0.00 0.00 0.00 99 1015.6
20260905051946 69 37 0.0 3.0 0.00 0.00 0.00 99 1015.4
20260905051442 70 44 2.0 2.0 0.00 0.00 0.00 99 1015.5
20260905050939 70 25 0.0 2.0 0.00 0.00 0.00 99 1015.0
20260905050435 70 56 1.0 2.0 0.00 0.00 0.00 99 1015.5
20260905045930 70 43 0.0 1.0 0.00 0.00 0.00 99 1015.5
20260905045420 70 343 0.0 1.0 0.00 0.00 0.00 99 1015.5
20260905044915 70 75 0.0 3.0 0.00 0.00 0.00 99 1015.5
20260905044410 70 7 0.0 2.0 0.00 0.00 0.00 99 1015.6
20260905043909 70 352 1.0 3.0 0.00 0.00 0.00 99 1015.4
20260905043404 71 55 0.0 2.0 0.00 0.00 0.00 99 1015.5
20260905042904 71 345 2.0 3.0 0.00 0.00 0.00 99 1015.3
20260905042359 71 344 1.0 3.0 0.00 0.00 0.00 99 1015.3
20260905041853 71 17 0.0 2.0 0.00 0.00 0.00 99 1015.3
20260905041349 71 298 0.0 3.0 0.00 0.00 0.00 99 1015.5
20260905040844 71 347 1.0 3.0 0.00 0.00 0.00 99 1015.6
20260905040343 71 267 0.0 2.0 0.00 0.00 0.00 99 1015.4